W2CS Weather Reports


time (UTC)temp
C
wind
direction
speed
KPH
gust
KPH
rain 1hr
cm
rain 24hr
cm
rain mn
cm
humidity
%
barometer
mb
20260504151038 18 11 1.6 4.8 0.00 0.00 0.00 59 1011.8
20260504150536 18 355 1.6 11.3 0.00 0.00 0.00 57 1011.9
20260504141038 17 103 1.6 6.4 0.00 0.00 0.00 61 1012.1
20260504140536 17 1 1.6 6.4 0.00 0.00 0.00 61 1012.1
20260504140106 17 359 1.6 6.4 0.00 0.00 0.00 60 1012.2
20260504130539 15 0 0.0 6.4 0.00 0.00 0.00 64 1012.3
20260504110539 6 0 0.0 1.6 0.00 0.00 0.00 89 1012.4
20260504110116 6 0 0.0 1.6 0.00 0.00 0.00 90 1012.3
20260504100538 5 0 0.0 0.0 0.00 0.00 0.00 88 1012.2
20260504090117 5 0 0.0 0.0 0.00 0.00 0.00 88 1011.7
20260504081548 5 0 0.0 0.0 0.00 0.00 0.00 88 1011.7
20260504081039 5 0 0.0 0.0 0.00 0.00 0.00 89 1011.7
20260504080541 5 0 0.0 0.0 0.00 0.00 0.00 89 1011.8
20260504050538 3 0 0.0 0.0 0.00 0.00 0.00 89 1011.5
20260504045542 3 0 0.0 0.0 0.00 0.00 0.00 89 1011.4
20260504045038 3 0 0.0 0.0 0.00 0.00 0.00 89 1011.5
20260504044559 3 0 0.0 0.0 0.00 0.00 0.00 88 1011.5
20260504044038 3 0 0.0 0.0 0.00 0.00 0.00 88 1011.4
20260504043539 3 0 0.0 0.0 0.00 0.00 0.00 88 1011.5
20260504043054 2 0 0.0 0.0 0.00 0.00 0.00 88 1011.4
20260504042536 2 0 0.0 0.0 0.00 0.00 0.00 87 1011.6
20260504042035 2 0 0.0 0.0 0.00 0.00 0.00 87 1011.6
20260504041550 2 0 0.0 3.2 0.00 0.00 0.00 86 1011.6
20260504041039 2 0 0.0 3.2 0.00 0.00 0.00 85 1011.4
20260504040541 2 20 0.0 3.2 0.00 0.00 0.00 85 1011.4
20260504040052 2 0 0.0 3.2 0.00 0.00 0.00 84 1011.3
20260504035539 2 0 0.0 3.2 0.00 0.00 0.00 84 1011.3
20260504035039 2 0 0.0 0.0 0.00 0.00 0.00 84 1011.3
20260504034554 2 0 0.0 0.0 0.00 0.00 0.00 83 1011.2
20260504034040 2 0 0.0 0.0 0.00 0.00 0.00 82 1011.2
20260504033538 2 0 0.0 0.0 0.00 0.00 0.00 82 1011.1
20260504033056 2 0 0.0 0.0 0.00 0.00 0.00 82 1011.1
20260504032539 2 0 0.0 1.6 0.00 0.00 0.00 82 1011.1
20260504032039 2 0 0.0 1.6 0.00 0.00 0.00 81 1011.1
20260504031551 2 0 0.0 0.0 0.00 0.00 0.00 81 1011.1
20260504031038 2 0 0.0 0.0 0.00 0.00 0.00 81 1011.0
20260504030542 2 0 0.0 0.0 0.00 0.00 0.00 81 1011.1
20260504030048 2 0 0.0 0.0 0.00 0.00 0.00 81 1011.0
20260504025539 3 0 0.0 0.0 0.00 0.00 0.00 81 1011.1
20260504025039 3 0 0.0 0.0 0.00 0.00 0.00 80 1011.1
20260504024550 3 0 0.0 0.0 0.00 0.00 0.00 80 1011.2
20260504024039 3 0 0.0 0.0 0.00 0.00 0.00 80 1011.1
20260504023539 3 0 0.0 0.0 0.00 0.00 0.00 80 1011.2
20260504023051 3 0 0.0 0.0 0.00 0.00 0.00 79 1011.1
20260504022537 3 0 0.0 0.0 0.00 0.00 0.00 79 1011.2
20260504022038 3 0 0.0 1.6 0.00 0.00 0.00 79 1011.1
20260504021553 3 0 0.0 1.6 0.00 0.00 0.00 79 1011.0
20260504021041 3 0 0.0 0.0 0.00 0.00 0.00 79 1011.1
20260504020541 3 0 0.0 0.0 0.00 0.00 0.00 77 1011.1
20260504020048 4 0 0.0 0.0 0.00 0.00 0.00 77 1011.1
20260504015536 4 0 0.0 0.0 0.00 0.00 0.00 77 1011.1
20260504015038 4 0 0.0 0.0 0.00 0.00 0.00 77 1011.1
20260504014550 4 0 0.0 0.0 0.00 0.00 0.00 77 1010.9
20260504014039 5 0 0.0 0.0 0.00 0.00 0.00 77 1010.9
20260504013535 5 0 0.0 0.0 0.00 0.00 0.00 76 1010.8
20260504013051 5 0 0.0 0.0 0.00 0.00 0.00 76 1010.8
20260504012542 5 0 0.0 0.0 0.00 0.00 0.00 75 1010.7
20260504012039 5 0 0.0 0.0 0.00 0.00 0.00 74 1010.6
20260504011552 5 0 0.0 0.0 0.00 0.00 0.00 73 1010.6
20260504011038 5 0 0.0 0.0 0.00 0.00 0.00 73 1010.5
20260504010539 6 0 0.0 0.0 0.00 0.00 0.00 71 1010.5
20260504010058 6 0 0.0 0.0 0.00 0.00 0.00 70 1010.4
20260504005540 6 0 0.0 0.0 0.00 0.00 0.00 70 1010.3
20260504005036 6 0 0.0 0.0 0.00 0.00 0.00 69 1010.2
20260504004550 6 0 0.0 0.0 0.00 0.00 0.00 68 1010.1
20260504004039 6 0 0.0 0.0 0.00 0.00 0.00 69 1010.1
20260504003543 6 0 0.0 0.0 0.00 0.00 0.00 69 1009.9
20260504003047 7 0 0.0 0.0 0.00 0.00 0.00 67 1009.8
20260504002539 7 0 0.0 0.0 0.00 0.00 0.00 67 1009.8
20260504002039 7 0 0.0 0.0 0.00 0.00 0.00 66 1009.8
20260504001607 7 0 0.0 0.0 0.00 0.00 0.00 65 1009.7
20260504001039 8 0 0.0 0.0 0.00 0.00 0.00 64 1009.7
20260504000540 8 0 0.0 1.6 0.00 0.00 0.00 62 1009.6
20260504000052 8 0 0.0 3.2 0.00 0.00 0.00 61 1009.5
20260503235540 8 20 0.0 3.2 0.00 0.00 0.00 62 1009.5
20260503235039 8 0 0.0 3.2 0.00 0.00 0.00 60 1009.3
20260503234550 9 0 0.0 4.8 0.00 0.00 0.00 60 1009.3
20260503234039 9 25 1.6 4.8 0.00 0.00 0.00 58 1009.2
20260503233538 9 25 1.6 4.8 0.00 0.00 0.00 58 1009.2
20260503233050 9 8 1.6 3.2 0.00 0.00 0.00 57 1009.0
20260503232541 9 357 0.0 4.8 0.00 0.00 0.00 60 1009.0
20260503232039 9 357 1.6 4.8 0.00 0.00 0.00 57 1008.9
20260503231550 10 247 0.0 4.8 0.00 0.00 0.00 61 1008.7
20260503231040 10 246 0.0 6.4 0.00 0.00 0.00 59 1008.5
20260503230535 10 0 0.0 6.4 0.00 0.00 0.00 56 1008.6
20260503230047 10 246 0.0 4.8 0.00 0.00 0.00 60 1008.5
20260503225539 10 0 0.0 4.8 0.00 0.00 0.00 57 1008.3
20260503225039 10 314 0.0 4.8 0.00 0.00 0.00 56 1008.3
20260503224547 10 16 1.6 4.8 0.00 0.00 0.00 56 1008.2
20260503224039 10 258 1.6 6.4 0.00 0.00 0.00 55 1008.1
20260503223542 11 0 1.6 6.4 0.00 0.00 0.00 55 1008.1
20260503223050 11 359 1.6 12.9 0.00 0.00 0.00 54 1008.1
20260503222537 11 345 3.2 12.9 0.00 0.00 0.00 54 1008.0
20260503222038 11 0 0.0 4.8 0.00 0.00 0.00 56 1007.9
20260503221551 11 0 0.0 6.4 0.00 0.00 0.00 55 1007.8
20260503221041 11 12 1.6 8.0 0.00 0.00 0.00 50 1007.8
20260503220539 11 89 3.2 8.0 0.00 0.00 0.00 52 1007.6
20260503220108 11 0 1.6 6.4 0.00 0.00 0.00 53 1007.7
20260503215539 11 4 1.6 6.4 0.00 0.00 0.00 54 1007.6
20260503215039 11 347 1.6 6.4 0.00 0.00 0.00 51 1007.6
20260503214547 11 340 1.6 6.4 0.00 0.00 0.00 54 1007.5
20260503214041 11 22 1.6 6.4 0.00 0.00 0.00 57 1007.4
20260503213539 11 333 1.6 4.8 0.00 0.00 0.00 54 1007.3
20260503213050 11 333 1.6 6.4 0.00 0.00 0.00 56 1007.4
20260503212539 11 0 1.6 6.4 0.00 0.00 0.00 53 1007.3
20260503212041 11 330 1.6 6.4 0.00 0.00 0.00 52 1007.2
20260503211601 12 343 1.6 6.4 0.00 0.00 0.00 53 1007.2
20260503211042 12 326 1.6 6.4 0.00 0.00 0.00 53 1007.0
20260503210539 12 51 1.6 6.4 0.00 0.00 0.00 50 1007.0
20260503210046 12 65 1.6 6.4 0.00 0.00 0.00 54 1006.9
20260503205539 12 353 1.6 8.0 0.00 0.00 0.00 50 1007.0
20260503205039 12 14 1.6 8.0 0.00 0.00 0.00 53 1006.8
20260503204552 12 3 1.6 4.8 0.00 0.00 0.00 54 1006.7
20260503204038 12 351 1.6 4.8 0.00 0.00 0.00 50 1006.6
20260503203535 13 108 1.6 9.7 0.00 0.00 0.00 51 1006.6
20260503203049 13 353 3.2 9.7 0.00 0.00 0.00 50 1006.5
20260503202539 13 353 3.2 6.4 0.00 0.00 0.00 50 1006.5
20260503202039 13 359 1.6 6.4 0.00 0.00 0.00 52 1006.4
20260503201549 13 316 1.6 6.4 0.00 0.00 0.00 55 1006.3
20260503201039 12 331 1.6 6.4 0.00 0.00 0.00 53 1006.2
20260503200542 12 59 3.2 6.4 0.00 0.00 0.00 52 1006.1
20260503200049 11 293 1.6 6.4 0.00 0.00 0.00 57 1006.2
20260503195539 11 349 1.6 6.4 0.00 0.00 0.00 58 1006.2
20260503195039 11 359 1.6 11.3 0.00 0.00 0.00 57 1006.3
20260503194551 11 351 1.6 11.3 0.00 0.00 0.00 59 1006.2
20260503194040 11 316 1.6 4.8 0.00 0.00 0.00 59 1006.1
20260503193539 11 328 1.6 4.8 0.00 0.00 0.00 57 1006.2
20260503193054 11 328 1.6 6.4 0.00 0.00 0.00 53 1006.1
20260503192539 12 304 1.6 6.4 0.00 0.00 0.00 57 1006.1
20260503192043 12 293 1.6 4.8 0.00 0.00 0.00 55 1006.2
20260503191550 11 276 1.6 4.8 0.00 0.00 0.00 58 1006.2
20260503191039 11 313 0.0 6.4 0.00 0.00 0.00 57 1006.2
20260503190540 11 75 1.6 6.4 0.00 0.00 0.00 58 1006.2
20260503190046 12 258 1.6 6.4 0.00 0.00 0.00 57 1006.4
20260503185539 12 308 1.6 6.4 0.00 0.00 0.00 56 1006.4
20260503185039 12 325 1.6 6.4 0.00 0.00 0.00 60 1006.3
20260503184557 12 207 1.6 6.4 0.00 0.00 0.00 61 1006.2
20260503184039 12 327 1.6 6.4 0.00 0.00 0.00 58 1006.4
20260503183538 12 8 3.2 9.7 0.00 0.00 0.00 56 1006.4
20260503183054 12 0 3.2 9.7 0.00 0.00 0.00 55 1006.4
20260503182539 12 109 1.6 9.7 0.00 0.00 0.00 61 1006.4
20260503182043 12 297 1.6 11.3 0.00 0.00 0.00 60 1006.5
20260503181620 12 349 1.6 11.3 0.00 0.00 0.00 58 1006.4
20260503181039 12 14 1.6 9.7 0.00 0.00 0.00 60 1006.5
20260503180539 12 302 3.2 14.5 0.00 0.00 0.00 57 1006.5
20260503180124 12 230 1.6 14.5 0.00 0.00 0.00 60 1006.5
20260503175539 12 331 1.6 11.3 0.00 0.00 0.00 60 1006.3
20260503175039 12 337 1.6 11.3 0.00 0.00 0.00 61 1006.4
20260503174556 12 291 1.6 11.3 0.00 0.00 0.00 61 1006.4
20260503174039 12 314 1.6 9.7 0.00 0.00 0.00 61 1006.4
20260503173539 12 206 1.6 9.7 0.00 0.00 0.00 64 1006.4
20260503173056 11 315 1.6 9.7 0.00 0.00 0.00 66 1006.5
20260503172538 11 8 3.2 9.7 0.00 0.00 0.00 65 1006.5
20260503172038 11 345 1.6 8.0 0.00 0.00 0.00 69 1006.4
20260503171549 11 0 1.6 8.0 0.00 0.00 0.00 70 1006.4
20260503171038 11 309 1.6 6.4 0.00 0.00 0.00 71 1006.4
20260503170540 11 328 1.6 6.4 0.00 0.00 0.00 68 1006.5